Elephant Butte, NM

3:54 AM MST on February 12, 2016 (GMT -0700)
Truth Or Consequences Municipal

Weather History for KTCS - February, 2014

Change the Weather History Date:

Friday, February 7, 2014

  Actual Average Record
Temperature  
Mean Temperature 43 °F -  
Max Temperature 58 °F 58 °F - ()
Min Temperature 27 °F 31 °F - ()
Degree Days  
Heating Degree Days 22    
Month to date heating degree days 166  
Since 1 July heating degree days 2240  
Moisture  
Dew Point 20 °F    
Average Humidity 41    
Maximum Humidity 58    
Minimum Humidity 23    
Precipitation  
Precipitation 0.00 in - - ()
Month to date precipitation T  
Year to date precipitation T  
Sea Level Pressure  
Sea Level Pressure 29.98 in    
Wind  
Wind Speed 5 mph (West)    
Max Wind Speed 14 mph    
Max Gust Speed 21 mph    
Visibility 10 miles    
Events      
T = Trace of Precipitation, MM = Missing Value Source: NWS Daily Summary

Daily Weather History Graph

Daily Weather History Graph

Search for Another Location

Airport or City:

Trip Planner

Search our weather history database for the weather conditions in past years. The results will help you decide how hot, cold, wet, or windy it might be!

Date:

Astronomy

Feb. 07, 2014 Rise Set
Actual Time 7:00 AM MST 5:46 PM MST
Civil Twilight 6:34 AM MST 6:12 PM MST
Nautical Twilight 6:05 AM MST 6:41 PM MST
Astronomical Twilight 5:36 AM MST 7:10 PM MST
Moon 12:03 PM MST (2/7) 1:16 AM MST (2/7)
Length of Visible Light 11h 38m
Length of Day
10h 46m
First Quarter, 60% of the Moon is Illuminated
Feb 7
First Quarter
Feb 14
Full
Feb 22
Last Quarter
Mar 1
New
Mar 8
First Quarter

Hourly Weather History & Observations

Time (MST) Temp. Windchill Dew Point Humidity Pressure Visibility Wind Dir Wind Speed Gust Speed Precip Events Conditions
12:53 AM 32.0 °F 28.7 °F 16.0 °F 52% 29.96 in 10.0 mi NW 3.5 mph - N/A   Overcast
1:53 AM 30.9 °F 27.5 °F 16.0 °F 54% 29.96 in 10.0 mi NW 3.5 mph - N/A   Partly Cloudy
2:53 AM 32.0 °F - 16.0 °F 52% 29.96 in 10.0 mi Calm Calm - N/A   Overcast
3:53 AM 32.0 °F - 17.1 °F 54% 29.95 in 10.0 mi Calm Calm - N/A   Overcast
4:53 AM 33.1 °F 30.0 °F 17.1 °F 52% 29.95 in 10.0 mi NW 3.5 mph - N/A   Overcast
5:53 AM 30.0 °F - 17.1 °F 59% 29.97 in 10.0 mi Calm Calm - N/A   Mostly Cloudy
6:53 AM 28.9 °F - 16.0 °F 58% 30.01 in 10.0 mi Calm Calm - N/A   Mostly Cloudy
7:53 AM 32.0 °F 28.7 °F 17.1 °F 54% 30.03 in 10.0 mi SW 3.5 mph - N/A   Clear
8:53 AM 37.0 °F - 18.0 °F 46% 30.04 in 10.0 mi Calm Calm - N/A   Clear
9:53 AM 42.1 °F 38.4 °F 19.9 °F 41% 30.03 in 10.0 mi South 5.8 mph - N/A   Partly Cloudy
10:53 AM 45.0 °F 41.2 °F 21.9 °F 40% 30.03 in 10.0 mi SSE 6.9 mph - N/A   Clear
11:53 AM 50.0 °F - 23.0 °F 35% 29.99 in 10.0 mi SSE 10.4 mph - N/A   Clear
12:53 PM 52.0 °F - 23.0 °F 32% 29.94 in 10.0 mi WSW 6.9 mph 18.4 mph N/A   Clear
1:53 PM 54.0 °F - 21.9 °F 29% 29.93 in 10.0 mi South 10.4 mph - N/A   Mostly Cloudy
2:53 PM 55.0 °F - 21.9 °F 28% 29.91 in 10.0 mi Variable 4.6 mph - N/A   Clear
3:53 PM 57.9 °F - 21.0 °F 24% 29.89 in 10.0 mi Calm Calm - N/A   Partly Cloudy
4:53 PM 57.0 °F - 19.9 °F 24% 29.92 in 10.0 mi West 8.1 mph - N/A   Clear
5:53 PM 53.1 °F - 19.0 °F 26% 29.95 in 10.0 mi Calm Calm - N/A   Clear
6:53 PM 48.9 °F - 19.9 °F 32% 30.00 in 10.0 mi West 10.4 mph - N/A   Clear
7:53 PM 46.9 °F - 21.0 °F 36% 30.02 in 10.0 mi West 11.5 mph - N/A   Clear
8:53 PM 43.0 °F 38.8 °F 19.9 °F 40% 30.03 in 10.0 mi NW 6.9 mph - N/A   Clear
9:53 PM 43.0 °F - 21.0 °F 42% 30.03 in 10.0 mi Calm Calm - N/A   Clear
10:53 PM 43.0 °F 38.2 °F 21.9 °F 43% 30.03 in 10.0 mi NNW 8.1 mph - N/A   Clear
11:53 PM 39.0 °F 34.0 °F 21.0 °F 49% 30.02 in 10.0 mi WNW 6.9 mph - N/A   Clear